PulseSat

PulseSat

COSMOS 2425 (716)

Last updated on March 3, 2019, 3:10 a.m. UTC

1 29670U 06062A   19061.63728625  .00000046  00000-0  10000-3 0  9998
2 29670  65.1553 283.7947 0023063 348.6036 359.7444  2.13105801 94814
UTC
Height (km)
Latitude
Longitude
Inclination
Orbital Period

Next 30 passes for location: Hong Kong

Rise time Rise Azimuth (degrees) Set time Set Azimuth (degrees) Duration Max altitude (degrees)

No matching passes for this satellites

PulseSat

PulseSat is the new satellites software and hardware trackering solution by Pulsely.
Satellite Two Line Element Set source: US Air Force Space Command

Download PulseSat for iOS
© 2017 Pulsely Limited